Year,Month,Day,Hour,Minute,Value (Times are PST for temperature in C)
2008,12,13,00,00,3.10
2008,12,13,00,01,3.10
2008,12,13,00,02,3.10
2008,12,13,00,03,3.10
2008,12,13,00,04,3.10
2008,12,13,00,05,2.90
2008,12,13,00,06,2.90
2008,12,13,00,07,2.90
2008,12,13,00,08,2.90
2008,12,13,00,09,2.90
2008,12,13,00,10,3.00
2008,12,13,00,11,3.00
2008,12,13,00,12,3.00
2008,12,13,00,13,3.00
2008,12,13,00,14,3.00
2008,12,13,00,15,3.00
2008,12,13,00,16,3.00
2008,12,13,00,17,3.00
2008,12,13,00,18,2.90
2008,12,13,00,19,2.90
2008,12,13,00,20,2.90
2008,12,13,00,21,2.90
2008,12,13,00,22,2.90
2008,12,13,00,23,2.90
2008,12,13,00,24,2.90
2008,12,13,00,25,2.90
2008,12,13,00,26,2.90
2008,12,13,00,27,2.90
2008,12,13,00,28,2.90
2008,12,13,00,29,2.90
2008,12,13,00,30,2.90
2008,12,13,00,31,2.90
2008,12,13,00,32,2.90
2008,12,13,00,33,2.90
2008,12,13,00,34,2.90
2008,12,13,00,35,2.80
2008,12,13,00,36,2.80
2008,12,13,00,37,2.80
2008,12,13,00,38,2.80
2008,12,13,00,39,2.80
2008,12,13,00,40,2.80
2008,12,13,00,41,2.70
2008,12,13,00,42,2.70
2008,12,13,00,43,2.70
2008,12,13,00,44,2.70
2008,12,13,00,45,2.70
2008,12,13,00,46,2.70
2008,12,13,00,47,2.70
2008,12,13,00,48,2.70
2008,12,13,00,49,2.70
2008,12,13,00,50,2.70
2008,12,13,00,51,2.70
2008,12,13,00,52,2.70
2008,12,13,00,53,2.70
2008,12,13,00,54,2.70
2008,12,13,00,55,2.70
2008,12,13,00,56,2.70
2008,12,13,00,57,2.70
2008,12,13,00,58,2.70
2008,12,13,00,59,2.70
2008,12,13,01,00,2.70
2008,12,13,01,01,2.70
2008,12,13,01,02,2.70
2008,12,13,01,03,2.70
2008,12,13,01,04,2.70
2008,12,13,01,05,2.70
2008,12,13,01,06,2.70
2008,12,13,01,07,2.70
2008,12,13,01,08,2.70
2008,12,13,01,09,2.70
2008,12,13,01,10,2.70
2008,12,13,01,11,2.70
2008,12,13,01,12,2.70
2008,12,13,01,13,2.70
2008,12,13,01,14,2.70
2008,12,13,01,15,2.70
2008,12,13,01,16,2.70
2008,12,13,01,17,2.70
2008,12,13,01,18,2.70
2008,12,13,01,19,2.70
2008,12,13,01,20,2.70
2008,12,13,01,21,2.70
2008,12,13,01,22,2.70
2008,12,13,01,23,2.70
2008,12,13,01,24,2.70
2008,12,13,01,25,2.70
2008,12,13,01,26,2.70
2008,12,13,01,27,2.70
2008,12,13,01,28,2.70
2008,12,13,01,29,2.70
2008,12,13,01,30,2.70
2008,12,13,01,31,2.60
2008,12,13,01,32,2.60
2008,12,13,01,33,2.60
2008,12,13,01,34,2.60
2008,12,13,01,35,2.60
2008,12,13,01,36,2.70
2008,12,13,01,37,2.70
2008,12,13,01,38,2.70
2008,12,13,01,39,2.70
2008,12,13,01,40,2.70
2008,12,13,01,41,2.70
2008,12,13,01,42,2.70
2008,12,13,01,43,2.70
2008,12,13,01,44,2.70
2008,12,13,01,45,2.70
2008,12,13,01,46,2.60
2008,12,13,01,47,2.70
2008,12,13,01,48,2.70
2008,12,13,01,49,2.60
2008,12,13,01,50,2.60
2008,12,13,01,51,2.60
2008,12,13,01,52,2.60
2008,12,13,01,53,2.60
2008,12,13,01,54,2.60
2008,12,13,01,55,2.60
2008,12,13,01,56,2.60
2008,12,13,01,57,2.60
2008,12,13,01,58,2.60
2008,12,13,01,59,2.60
2008,12,13,02,00,2.60
2008,12,13,02,01,2.60
2008,12,13,02,02,2.60
2008,12,13,02,03,2.60
2008,12,13,02,04,2.60
2008,12,13,02,05,2.60
2008,12,13,02,06,2.60
2008,12,13,02,07,2.60
2008,12,13,02,08,2.60
2008,12,13,02,09,2.60
2008,12,13,02,10,2.60
2008,12,13,02,11,2.60
2008,12,13,02,12,2.60
2008,12,13,02,13,2.60
2008,12,13,02,14,2.60
2008,12,13,02,15,2.60
2008,12,13,02,16,2.60
2008,12,13,02,17,2.60
2008,12,13,02,18,2.60
2008,12,13,02,19,2.60
2008,12,13,02,20,2.60
2008,12,13,02,21,2.60
2008,12,13,02,22,2.60
2008,12,13,02,23,2.60
2008,12,13,02,24,2.60
2008,12,13,02,25,2.60
2008,12,13,02,26,2.60
2008,12,13,02,27,2.60
2008,12,13,02,28,2.60
2008,12,13,02,29,2.60
2008,12,13,02,30,2.60
2008,12,13,02,31,2.70
2008,12,13,02,32,2.70
2008,12,13,02,33,2.70
2008,12,13,02,34,2.70
2008,12,13,02,35,2.70
2008,12,13,02,36,2.70
2008,12,13,02,37,2.70
2008,12,13,02,38,2.70
2008,12,13,02,39,2.70
2008,12,13,02,40,2.70
2008,12,13,02,41,2.80
2008,12,13,02,42,2.80
2008,12,13,02,43,2.80
2008,12,13,02,44,2.80
2008,12,13,02,45,2.80
2008,12,13,02,46,2.80
2008,12,13,02,47,2.90
2008,12,13,02,48,2.90
2008,12,13,02,49,2.90
2008,12,13,02,50,2.90
2008,12,13,02,51,2.90
2008,12,13,02,52,2.90
2008,12,13,02,53,2.90
2008,12,13,02,54,2.90
2008,12,13,02,55,2.90
2008,12,13,02,56,2.90
2008,12,13,02,57,2.90
2008,12,13,02,58,2.90
2008,12,13,02,59,2.90
2008,12,13,03,00,2.90
2008,12,13,03,01,2.90
2008,12,13,03,02,2.90
2008,12,13,03,03,2.90
2008,12,13,03,04,2.80
2008,12,13,03,05,2.80
2008,12,13,03,06,2.80
2008,12,13,03,07,2.80
2008,12,13,03,08,2.80
2008,12,13,03,09,2.80
2008,12,13,03,10,2.80
2008,12,13,03,11,2.80
2008,12,13,03,12,2.80
2008,12,13,03,13,2.80
2008,12,13,03,14,2.80
2008,12,13,03,15,2.80
2008,12,13,03,16,2.80
2008,12,13,03,17,2.80
2008,12,13,03,18,2.80
2008,12,13,03,19,2.80
2008,12,13,03,20,2.70
2008,12,13,03,21,2.70
2008,12,13,03,22,2.70
2008,12,13,03,23,2.70
2008,12,13,03,24,2.70
2008,12,13,03,25,2.70
2008,12,13,03,26,2.70
2008,12,13,03,27,2.70
2008,12,13,03,28,2.70
2008,12,13,03,29,2.70
2008,12,13,03,30,2.70
2008,12,13,03,31,2.70
2008,12,13,03,32,2.70
2008,12,13,03,33,2.70
2008,12,13,03,34,2.70
2008,12,13,03,35,2.70
2008,12,13,03,36,2.70
2008,12,13,03,37,2.70
2008,12,13,03,38,2.70
2008,12,13,03,39,2.70
2008,12,13,03,40,2.70
2008,12,13,03,41,2.70
2008,12,13,03,42,2.70
2008,12,13,03,43,2.70
2008,12,13,03,44,2.70
2008,12,13,03,45,2.80
2008,12,13,03,46,2.80
2008,12,13,03,47,2.80
2008,12,13,03,48,2.80
2008,12,13,03,49,2.80
2008,12,13,03,50,2.80
2008,12,13,03,51,2.90
2008,12,13,03,52,2.90
2008,12,13,03,53,2.90
2008,12,13,03,54,2.90
2008,12,13,03,55,2.90
2008,12,13,03,56,2.90
2008,12,13,03,57,2.90
2008,12,13,03,58,2.90
2008,12,13,03,59,2.90
2008,12,13,04,00,2.90
2008,12,13,04,01,2.90
2008,12,13,04,02,3.10
2008,12,13,04,03,3.10
2008,12,13,04,04,3.10
2008,12,13,04,05,3.10
2008,12,13,04,06,3.10
2008,12,13,04,07,3.10
2008,12,13,04,08,3.10
2008,12,13,04,09,3.10
2008,12,13,04,10,3.10
2008,12,13,04,11,3.10
2008,12,13,04,12,3.10
2008,12,13,04,13,3.10
2008,12,13,04,14,3.10
2008,12,13,04,15,3.10
2008,12,13,04,16,3.10
2008,12,13,04,17,3.10
2008,12,13,04,18,3.10
2008,12,13,04,19,3.10
2008,12,13,04,20,3.10
2008,12,13,04,21,3.10
2008,12,13,04,22,3.10
2008,12,13,04,23,3.10
2008,12,13,04,24,3.10
2008,12,13,04,25,3.10
2008,12,13,04,26,3.10
2008,12,13,04,27,3.10
2008,12,13,04,28,3.10
2008,12,13,04,29,3.10
2008,12,13,04,30,3.10
2008,12,13,04,31,3.10
2008,12,13,04,32,3.10
2008,12,13,04,33,3.10
2008,12,13,04,34,3.10
2008,12,13,04,35,3.20
2008,12,13,04,36,3.20
2008,12,13,04,37,3.20
2008,12,13,04,38,3.20
2008,12,13,04,39,3.30
2008,12,13,04,40,3.30
2008,12,13,04,41,3.30
2008,12,13,04,42,3.30
2008,12,13,04,43,3.30
2008,12,13,04,44,3.30
2008,12,13,04,45,3.40
2008,12,13,04,46,3.40
2008,12,13,04,47,3.40
2008,12,13,04,48,3.50
2008,12,13,04,49,3.50
2008,12,13,04,50,3.50
2008,12,13,04,51,3.50
2008,12,13,04,52,3.50
2008,12,13,04,53,3.50
2008,12,13,04,54,3.50
2008,12,13,04,55,3.50
2008,12,13,04,56,3.60
2008,12,13,04,57,3.60
2008,12,13,04,58,3.60
2008,12,13,04,59,3.50
2008,12,13,05,00,3.50
2008,12,13,05,01,3.50
2008,12,13,05,02,3.50
2008,12,13,05,03,3.50
2008,12,13,05,04,3.50
2008,12,13,05,05,3.50
2008,12,13,05,06,3.50
2008,12,13,05,07,3.50
2008,12,13,05,08,3.50
2008,12,13,05,09,3.60
2008,12,13,05,10,3.60
2008,12,13,05,11,3.60
2008,12,13,05,12,3.60
2008,12,13,05,13,3.60
2008,12,13,05,14,3.60
2008,12,13,05,15,3.60
2008,12,13,05,16,3.60
2008,12,13,05,17,3.60
2008,12,13,05,18,3.60
2008,12,13,05,19,3.60
2008,12,13,05,20,3.60
2008,12,13,05,21,3.60
2008,12,13,05,22,3.60
2008,12,13,05,23,3.70
2008,12,13,05,24,3.70
2008,12,13,05,25,3.70
2008,12,13,05,26,3.70
2008,12,13,05,27,3.70
2008,12,13,05,28,3.70
2008,12,13,05,29,3.70
2008,12,13,05,30,3.70
2008,12,13,05,31,3.70
2008,12,13,05,32,3.80
2008,12,13,05,33,3.80
2008,12,13,05,34,3.80
2008,12,13,05,35,3.80
2008,12,13,05,36,3.80
2008,12,13,05,37,3.80
2008,12,13,05,38,3.80
2008,12,13,05,39,3.80
2008,12,13,05,40,3.80
2008,12,13,05,41,3.80
2008,12,13,05,42,3.80
2008,12,13,05,43,3.80
2008,12,13,05,44,3.80
2008,12,13,05,45,3.80
2008,12,13,05,46,3.80
2008,12,13,05,47,3.80
2008,12,13,05,48,3.80
2008,12,13,05,49,3.80
2008,12,13,05,50,3.80
2008,12,13,05,51,3.80
2008,12,13,05,52,3.80
2008,12,13,05,53,3.80
2008,12,13,05,54,3.80
2008,12,13,05,55,3.80
2008,12,13,05,56,3.80
2008,12,13,05,57,3.80
2008,12,13,05,58,3.80
2008,12,13,05,59,3.80
2008,12,13,06,00,3.80
2008,12,13,06,01,3.80
2008,12,13,06,02,3.80
2008,12,13,06,03,3.80
2008,12,13,06,04,3.80
2008,12,13,06,05,3.80
2008,12,13,06,06,3.80
2008,12,13,06,07,3.80
2008,12,13,06,08,3.80
2008,12,13,06,09,3.80
2008,12,13,06,10,3.80
2008,12,13,06,11,3.80
2008,12,13,06,12,3.80
2008,12,13,06,13,3.80
2008,12,13,06,14,3.80
2008,12,13,06,15,3.80
2008,12,13,06,16,3.80
2008,12,13,06,17,3.80
2008,12,13,06,18,3.80
2008,12,13,06,19,3.80
2008,12,13,06,20,3.80
2008,12,13,06,21,3.80
2008,12,13,06,22,3.80
2008,12,13,06,23,3.80
2008,12,13,06,24,3.80
2008,12,13,06,25,3.90
2008,12,13,06,26,3.90
2008,12,13,06,27,3.90
2008,12,13,06,28,3.90
2008,12,13,06,29,3.90
2008,12,13,06,30,3.90
2008,12,13,06,31,3.90
2008,12,13,06,32,3.90
2008,12,13,06,33,3.90
2008,12,13,06,34,3.90
2008,12,13,06,35,3.90
2008,12,13,06,36,3.90
2008,12,13,06,37,3.90
2008,12,13,06,38,3.90
2008,12,13,06,39,3.90
2008,12,13,06,40,3.90
2008,12,13,06,41,3.90
2008,12,13,06,42,3.90
2008,12,13,06,43,3.90
2008,12,13,06,44,3.90
2008,12,13,06,45,4.00
2008,12,13,06,46,4.00
2008,12,13,06,47,4.00
2008,12,13,06,48,4.10
2008,12,13,06,49,4.10
2008,12,13,06,50,4.10
2008,12,13,06,51,4.20
2008,12,13,06,52,4.10
2008,12,13,06,53,4.10
2008,12,13,06,54,4.10
2008,12,13,06,55,4.20
2008,12,13,06,56,4.20
2008,12,13,06,57,4.20
2008,12,13,06,58,4.20
2008,12,13,06,59,4.20
2008,12,13,07,00,4.20
2008,12,13,07,01,4.20
2008,12,13,07,02,4.20
2008,12,13,07,03,4.20
2008,12,13,07,04,4.20
2008,12,13,07,05,4.20
2008,12,13,07,06,4.20
2008,12,13,07,07,4.20
2008,12,13,07,08,4.20
2008,12,13,07,09,4.20
2008,12,13,07,10,4.20
2008,12,13,07,11,4.20
2008,12,13,07,12,4.20
2008,12,13,07,13,4.20
2008,12,13,07,14,4.10
2008,12,13,07,15,4.10
2008,12,13,07,16,4.10
2008,12,13,07,17,4.10
2008,12,13,07,18,4.10
2008,12,13,07,19,4.10
2008,12,13,07,20,4.10
2008,12,13,07,21,4.10
2008,12,13,07,22,4.10
2008,12,13,07,23,4.10
2008,12,13,07,24,4.10
2008,12,13,07,25,4.10
2008,12,13,07,26,4.10
2008,12,13,07,27,4.10
2008,12,13,07,28,4.10
2008,12,13,07,29,4.10
2008,12,13,07,30,4.10
2008,12,13,07,31,4.10
2008,12,13,07,32,4.10
2008,12,13,07,33,4.10
2008,12,13,07,34,4.10
2008,12,13,07,35,4.10
2008,12,13,07,36,4.00
2008,12,13,07,37,4.00
2008,12,13,07,38,4.00
2008,12,13,07,39,4.00
2008,12,13,07,40,4.00
2008,12,13,07,41,4.00
2008,12,13,07,42,4.00
2008,12,13,07,43,4.00
2008,12,13,07,44,4.00
2008,12,13,07,45,4.00
2008,12,13,07,46,4.00
2008,12,13,07,47,4.00
2008,12,13,07,48,4.00
2008,12,13,07,49,4.00
2008,12,13,07,50,4.00
2008,12,13,07,51,4.00
2008,12,13,07,52,4.00
2008,12,13,07,53,4.00
2008,12,13,07,54,4.00
2008,12,13,07,55,4.00
2008,12,13,07,56,4.00
2008,12,13,07,57,4.00
2008,12,13,07,58,4.00
2008,12,13,07,59,4.00
2008,12,13,08,00,4.00
2008,12,13,08,01,4.00
2008,12,13,08,02,4.00
2008,12,13,08,03,4.00
2008,12,13,08,04,4.00
2008,12,13,08,05,4.10
2008,12,13,08,06,4.10
2008,12,13,08,07,4.10
2008,12,13,08,08,4.10
2008,12,13,08,09,4.10
2008,12,13,08,10,4.10
2008,12,13,08,11,4.10
2008,12,13,08,12,4.10
2008,12,13,08,13,4.10
2008,12,13,08,14,4.10
2008,12,13,08,15,4.10
2008,12,13,08,16,4.10
2008,12,13,08,17,4.10
2008,12,13,08,18,4.10
2008,12,13,08,19,4.10
2008,12,13,08,20,4.10
2008,12,13,08,21,4.10
2008,12,13,08,22,4.00
2008,12,13,08,23,4.00
2008,12,13,08,24,4.00
2008,12,13,08,25,4.00
2008,12,13,08,26,4.00
2008,12,13,08,27,4.10
2008,12,13,08,28,4.10
2008,12,13,08,29,4.10
2008,12,13,08,30,4.10
2008,12,13,08,31,4.10
2008,12,13,08,32,4.10
2008,12,13,08,33,4.10
2008,12,13,08,34,4.20
2008,12,13,08,35,4.20
2008,12,13,08,36,4.20
2008,12,13,08,37,4.20
2008,12,13,08,38,4.20
2008,12,13,08,39,4.20
2008,12,13,08,40,4.20
2008,12,13,08,41,4.20
2008,12,13,08,42,4.30
2008,12,13,08,43,4.30
2008,12,13,08,44,4.30
2008,12,13,08,45,4.30
2008,12,13,08,46,4.30
2008,12,13,08,47,4.30
2008,12,13,08,48,4.30
2008,12,13,08,49,4.30
2008,12,13,08,50,4.30
2008,12,13,08,51,4.20
2008,12,13,08,52,4.20
2008,12,13,08,53,4.30
2008,12,13,08,54,4.30
2008,12,13,08,55,4.30
2008,12,13,08,56,4.30
2008,12,13,08,57,4.30
2008,12,13,08,58,4.30
2008,12,13,08,59,4.20
2008,12,13,09,00,4.20
2008,12,13,09,01,4.10
2008,12,13,09,02,4.10
2008,12,13,09,03,4.00
2008,12,13,09,04,4.00
2008,12,13,09,05,3.90
2008,12,13,09,06,3.90
2008,12,13,09,07,3.80
2008,12,13,09,08,3.80
2008,12,13,09,09,3.80
2008,12,13,09,10,3.80
2008,12,13,09,11,3.80
2008,12,13,09,12,3.70
2008,12,13,09,13,3.70
2008,12,13,09,14,3.70
2008,12,13,09,15,3.70
2008,12,13,09,16,3.70
2008,12,13,09,17,3.70
2008,12,13,09,18,3.70
2008,12,13,09,19,3.70
2008,12,13,09,20,3.70
2008,12,13,09,21,3.60
2008,12,13,09,22,3.60
2008,12,13,09,23,3.70
2008,12,13,09,24,3.70
2008,12,13,09,25,3.70
2008,12,13,09,26,3.70
2008,12,13,09,27,3.70
2008,12,13,09,28,3.70
2008,12,13,09,29,3.70
2008,12,13,09,30,3.60
2008,12,13,09,31,3.60
2008,12,13,09,32,3.60
2008,12,13,09,33,3.60
2008,12,13,09,34,3.50
2008,12,13,09,35,3.50
2008,12,13,09,36,3.50
2008,12,13,09,37,3.50
2008,12,13,09,38,3.50
2008,12,13,09,39,3.50
2008,12,13,09,40,3.40
2008,12,13,09,41,3.40
2008,12,13,09,42,3.40
2008,12,13,09,43,3.40
2008,12,13,09,44,3.40
2008,12,13,09,45,3.40
2008,12,13,09,46,3.40
2008,12,13,09,47,3.40
2008,12,13,09,48,3.40
2008,12,13,09,49,3.40
2008,12,13,09,50,3.40
2008,12,13,09,51,3.40
2008,12,13,09,52,3.40
2008,12,13,09,53,3.40
2008,12,13,09,54,3.40
2008,12,13,09,55,3.40
2008,12,13,09,56,3.50
2008,12,13,09,57,3.50
2008,12,13,09,58,3.50
2008,12,13,09,59,3.50
2008,12,13,10,00,3.60
2008,12,13,10,01,3.60
2008,12,13,10,02,3.70
2008,12,13,10,03,3.80
2008,12,13,10,04,3.80
2008,12,13,10,05,3.80
2008,12,13,10,06,3.90
2008,12,13,10,07,3.90
2008,12,13,10,08,3.80
2008,12,13,10,09,3.80
2008,12,13,10,10,3.80
2008,12,13,10,11,3.80
2008,12,13,10,12,3.80
2008,12,13,10,13,3.80
2008,12,13,10,14,3.80
2008,12,13,10,15,3.80
2008,12,13,10,16,3.80
2008,12,13,10,17,3.80
2008,12,13,10,18,3.80
2008,12,13,10,19,3.80
2008,12,13,10,20,3.80
2008,12,13,10,21,3.70
2008,12,13,10,22,3.70
2008,12,13,10,23,3.70
2008,12,13,10,24,3.60
2008,12,13,10,25,3.60
2008,12,13,10,26,3.60
2008,12,13,10,27,3.60
2008,12,13,10,28,3.60
2008,12,13,10,29,3.60
2008,12,13,10,30,3.60
2008,12,13,10,31,3.50
2008,12,13,10,32,3.50
2008,12,13,10,33,3.50
2008,12,13,10,34,3.40
2008,12,13,10,35,3.40
2008,12,13,10,36,3.40
2008,12,13,10,37,3.40
2008,12,13,10,38,3.40
2008,12,13,10,39,3.40
2008,12,13,10,40,3.40
2008,12,13,10,41,3.30
2008,12,13,10,42,3.30
2008,12,13,10,43,3.30
2008,12,13,10,44,3.30
2008,12,13,10,45,3.30
2008,12,13,10,46,3.30
2008,12,13,10,47,3.30
2008,12,13,10,48,3.30
2008,12,13,10,49,3.30
2008,12,13,10,50,3.30
2008,12,13,10,51,3.30
2008,12,13,10,52,3.30
2008,12,13,10,53,3.20
2008,12,13,10,54,3.20
2008,12,13,10,55,3.20
2008,12,13,10,56,3.20
2008,12,13,10,57,3.20
2008,12,13,10,58,3.20
2008,12,13,10,59,3.20
2008,12,13,11,00,3.10
2008,12,13,11,01,3.10
2008,12,13,11,02,3.10
2008,12,13,11,03,3.10
2008,12,13,11,04,3.10
2008,12,13,11,05,3.10
2008,12,13,11,06,3.00
2008,12,13,11,07,2.90
2008,12,13,11,08,2.90
2008,12,13,11,09,2.90
2008,12,13,11,10,2.90
2008,12,13,11,11,2.90
2008,12,13,11,12,2.90
2008,12,13,11,13,2.90
2008,12,13,11,14,2.90
2008,12,13,11,15,2.90
2008,12,13,11,16,2.90
2008,12,13,11,17,2.90
2008,12,13,11,18,2.90
2008,12,13,11,19,2.90
2008,12,13,11,20,2.90
2008,12,13,11,21,2.90
2008,12,13,11,22,2.90
2008,12,13,11,23,2.90
2008,12,13,11,24,2.90
2008,12,13,11,25,2.90
2008,12,13,11,26,2.90
2008,12,13,11,27,2.90
2008,12,13,11,28,2.90
2008,12,13,11,29,2.90
2008,12,13,11,30,2.80
2008,12,13,11,31,2.80
2008,12,13,11,32,2.80
2008,12,13,11,33,2.80
2008,12,13,11,34,2.80
2008,12,13,11,35,2.80
2008,12,13,11,36,2.70
2008,12,13,11,37,2.70
2008,12,13,11,38,2.70
2008,12,13,11,39,2.80
2008,12,13,11,40,2.70
2008,12,13,11,41,2.70
2008,12,13,11,42,2.70
2008,12,13,11,43,2.70
2008,12,13,11,44,2.70
2008,12,13,11,45,2.70
2008,12,13,11,46,2.70
2008,12,13,11,47,2.70
2008,12,13,11,48,2.70
2008,12,13,11,49,2.70
2008,12,13,11,50,2.70
2008,12,13,11,51,2.70
2008,12,13,11,52,2.70
2008,12,13,11,53,2.70
2008,12,13,11,54,2.70
2008,12,13,11,55,2.70
2008,12,13,11,56,2.70
2008,12,13,11,57,2.70
2008,12,13,11,58,2.70
2008,12,13,11,59,2.70
2008,12,13,12,00,2.70
2008,12,13,12,01,2.70
2008,12,13,12,02,2.70
2008,12,13,12,03,2.70
2008,12,13,12,04,2.70
2008,12,13,12,05,2.70
2008,12,13,12,06,2.70
2008,12,13,12,07,2.60
2008,12,13,12,08,2.60
2008,12,13,12,09,2.70
2008,12,13,12,10,2.60
2008,12,13,12,11,2.60
2008,12,13,12,12,2.60
2008,12,13,12,13,2.60
2008,12,13,12,14,2.60
2008,12,13,12,15,2.60
2008,12,13,12,16,2.60
2008,12,13,12,17,2.60
2008,12,13,12,18,2.60
2008,12,13,12,19,2.60
2008,12,13,12,20,2.60
2008,12,13,12,21,2.60
2008,12,13,12,22,2.60
2008,12,13,12,23,2.60
2008,12,13,12,24,2.60
2008,12,13,12,25,2.60
2008,12,13,12,26,2.60
2008,12,13,12,27,2.60
2008,12,13,12,28,2.60
2008,12,13,12,29,2.60
2008,12,13,12,30,2.70
2008,12,13,12,31,2.60
2008,12,13,12,32,2.70
2008,12,13,12,33,2.70
2008,12,13,12,34,2.70
2008,12,13,12,35,2.70
2008,12,13,12,36,2.70
2008,12,13,12,37,2.70
2008,12,13,12,38,2.70
2008,12,13,12,39,2.70
2008,12,13,12,40,2.60
2008,12,13,12,41,2.60
2008,12,13,12,42,2.60
2008,12,13,12,43,2.60
2008,12,13,12,44,2.60
2008,12,13,12,45,2.60
2008,12,13,12,46,2.60
2008,12,13,12,47,2.60
2008,12,13,12,48,2.60
2008,12,13,12,49,2.60
2008,12,13,12,50,2.60
2008,12,13,12,51,2.60
2008,12,13,12,52,2.60
2008,12,13,12,53,2.60
2008,12,13,12,54,2.60
2008,12,13,12,55,2.60
2008,12,13,12,56,2.50
2008,12,13,12,57,2.50
2008,12,13,12,58,2.50
2008,12,13,12,59,2.50
2008,12,13,13,00,2.50
2008,12,13,13,01,2.50
2008,12,13,13,02,2.50
2008,12,13,13,03,2.50
2008,12,13,13,04,2.50
2008,12,13,13,05,2.50
2008,12,13,13,06,2.50
2008,12,13,13,07,2.50
2008,12,13,13,08,2.50
2008,12,13,13,09,2.50
2008,12,13,13,10,2.50
2008,12,13,13,11,2.50
2008,12,13,13,12,2.40
2008,12,13,13,13,2.40
2008,12,13,13,14,2.40
2008,12,13,13,15,2.40
2008,12,13,13,16,2.40
2008,12,13,13,17,2.40
2008,12,13,13,18,2.30
2008,12,13,13,19,2.20
2008,12,13,13,20,2.20
2008,12,13,13,21,2.20
2008,12,13,13,22,2.20
2008,12,13,13,23,2.20
2008,12,13,13,24,2.20
2008,12,13,13,25,2.20
2008,12,13,13,26,2.20
2008,12,13,13,27,2.20
2008,12,13,13,28,2.10
2008,12,13,13,29,2.10
2008,12,13,13,30,2.10
2008,12,13,13,31,2.00
2008,12,13,13,32,2.00
2008,12,13,13,33,2.00
2008,12,13,13,34,2.00
2008,12,13,13,35,1.90
2008,12,13,13,36,1.90
2008,12,13,13,37,1.90
2008,12,13,13,38,1.90
2008,12,13,13,39,1.90
2008,12,13,13,40,1.80
2008,12,13,13,41,1.80
2008,12,13,13,42,1.80
2008,12,13,13,43,1.80
2008,12,13,13,44,1.80
2008,12,13,13,45,1.80
2008,12,13,13,46,1.80
2008,12,13,13,47,1.80
2008,12,13,13,48,1.80
2008,12,13,13,49,1.70
2008,12,13,13,50,1.70
2008,12,13,13,51,1.70
2008,12,13,13,52,1.70
2008,12,13,13,53,1.70
2008,12,13,13,54,1.70
2008,12,13,13,55,1.70
2008,12,13,13,56,1.70
2008,12,13,13,57,1.70
2008,12,13,13,58,1.70
2008,12,13,13,59,1.70
2008,12,13,14,00,1.70
2008,12,13,14,01,1.60
2008,12,13,14,02,1.60
2008,12,13,14,03,1.60
2008,12,13,14,04,1.50
2008,12,13,14,05,1.50
2008,12,13,14,06,1.50
2008,12,13,14,07,1.50
2008,12,13,14,08,1.50
2008,12,13,14,09,1.50
2008,12,13,14,10,1.50
2008,12,13,14,11,1.50
2008,12,13,14,12,1.40
2008,12,13,14,13,1.40
2008,12,13,14,14,1.40
2008,12,13,14,15,1.40
2008,12,13,14,16,1.40
2008,12,13,14,17,1.40
2008,12,13,14,18,1.30
2008,12,13,14,19,1.30
2008,12,13,14,20,1.30
2008,12,13,14,21,1.30
2008,12,13,14,22,1.30
2008,12,13,14,23,1.30
2008,12,13,14,24,1.30
2008,12,13,14,25,1.30
2008,12,13,14,26,1.30
2008,12,13,14,27,1.30
2008,12,13,14,28,1.30
2008,12,13,14,29,1.30
2008,12,13,14,30,1.30
2008,12,13,14,31,1.20
2008,12,13,14,32,1.20
2008,12,13,14,33,1.10
2008,12,13,14,34,1.10
2008,12,13,14,35,1.00
2008,12,13,14,36,1.00
2008,12,13,14,37,1.00
2008,12,13,14,38,1.00
2008,12,13,14,39,1.00
2008,12,13,14,40,1.00
2008,12,13,14,41,0.90
2008,12,13,14,42,0.90
2008,12,13,14,43,0.90
2008,12,13,14,44,0.90
2008,12,13,14,45,0.90
2008,12,13,14,46,0.90
2008,12,13,14,47,0.90
2008,12,13,14,48,0.90
2008,12,13,14,49,0.90
2008,12,13,14,50,0.90
2008,12,13,14,51,0.90
2008,12,13,14,52,0.90
2008,12,13,14,53,0.90
2008,12,13,14,54,1.00
2008,12,13,14,55,1.00
2008,12,13,14,56,0.90
2008,12,13,14,57,0.90
2008,12,13,14,58,0.90
2008,12,13,14,59,0.80
2008,12,13,15,00,0.80
2008,12,13,15,01,0.80
2008,12,13,15,02,0.80
2008,12,13,15,03,0.70
2008,12,13,15,04,0.70
2008,12,13,15,05,0.60
2008,12,13,15,06,0.60
2008,12,13,15,07,0.60
2008,12,13,15,08,0.60
2008,12,13,15,09,0.60
2008,12,13,15,10,0.60
2008,12,13,15,11,0.50
2008,12,13,15,12,0.50
2008,12,13,15,13,0.50
2008,12,13,15,14,0.50
2008,12,13,15,15,0.50
2008,12,13,15,16,0.50
2008,12,13,15,17,0.50
2008,12,13,15,18,0.50
2008,12,13,15,19,0.50
2008,12,13,15,20,0.50
2008,12,13,15,21,0.50
2008,12,13,15,22,0.50
2008,12,13,15,23,0.50
2008,12,13,15,24,0.50
2008,12,13,15,25,0.50
2008,12,13,15,26,0.50
2008,12,13,15,27,0.40
2008,12,13,15,28,0.40
2008,12,13,15,29,0.40
2008,12,13,15,30,0.40
2008,12,13,15,31,0.40
2008,12,13,15,32,0.30
2008,12,13,15,33,0.30
2008,12,13,15,34,0.30
2008,12,13,15,35,0.30
2008,12,13,15,36,0.30
2008,12,13,15,37,0.30
2008,12,13,15,38,0.30
2008,12,13,15,39,0.30
2008,12,13,15,40,0.30
2008,12,13,15,41,0.20
2008,12,13,15,42,0.20
2008,12,13,15,43,0.20
2008,12,13,15,44,0.10
2008,12,13,15,45,0.10
2008,12,13,15,46,0.10
2008,12,13,15,47,0.10
2008,12,13,15,48,0.10
2008,12,13,15,49,0.10
2008,12,13,15,50,0.10
2008,12,13,15,51,0.10
2008,12,13,15,52,0.10
2008,12,13,15,53,0.10
2008,12,13,15,54,0.10
2008,12,13,15,55,0.10
2008,12,13,15,56,0.00
2008,12,13,15,57,-0.10
2008,12,13,15,58,-0.10
2008,12,13,15,59,-0.10
2008,12,13,16,00,-0.10
2008,12,13,16,01,-0.10
2008,12,13,16,02,-0.10
2008,12,13,16,03,-0.10
2008,12,13,16,04,-0.10
2008,12,13,16,05,-0.20
2008,12,13,16,06,-0.20
2008,12,13,16,07,-0.20
2008,12,13,16,08,-0.20
2008,12,13,16,09,-0.20
2008,12,13,16,10,-0.20
2008,12,13,16,11,-0.20
2008,12,13,16,12,-0.20
2008,12,13,16,13,-0.20
2008,12,13,16,14,-0.20
2008,12,13,16,15,-0.20
2008,12,13,16,16,-0.20
2008,12,13,16,17,-0.20
2008,12,13,16,18,-0.20
2008,12,13,16,19,-0.30
2008,12,13,16,20,-0.30
2008,12,13,16,21,-0.30
2008,12,13,16,22,-0.30
2008,12,13,16,23,-0.30
2008,12,13,16,24,-0.20
2008,12,13,16,25,-0.20
2008,12,13,16,26,-0.20
2008,12,13,16,27,-0.20
2008,12,13,16,28,-0.20
2008,12,13,16,29,-0.20
2008,12,13,16,30,-0.20
2008,12,13,16,31,-0.20
2008,12,13,16,32,-0.20
2008,12,13,16,33,-0.20
2008,12,13,16,34,-0.20
2008,12,13,16,35,-0.20
2008,12,13,16,36,-0.30
2008,12,13,16,37,-0.30
2008,12,13,16,38,-0.30
2008,12,13,16,39,-0.30
2008,12,13,16,40,-0.30
2008,12,13,16,41,-0.30
2008,12,13,16,42,-0.40
2008,12,13,16,43,-0.40
2008,12,13,16,44,-0.40
2008,12,13,16,45,-0.30
2008,12,13,16,46,-0.30
2008,12,13,16,47,-0.30
2008,12,13,16,48,-0.30
2008,12,13,16,49,-0.30
2008,12,13,16,50,-0.30
2008,12,13,16,51,-0.30
2008,12,13,16,52,-0.40
2008,12,13,16,53,-0.40
2008,12,13,16,54,-0.40
2008,12,13,16,55,-0.40
2008,12,13,16,56,-0.40
2008,12,13,16,57,-0.40
2008,12,13,16,58,-0.40
2008,12,13,16,59,-0.40
2008,12,13,17,00,-0.40
2008,12,13,17,01,-0.40
2008,12,13,17,02,-0.50
2008,12,13,17,03,-0.60
2008,12,13,17,04,-0.60
2008,12,13,17,05,-0.60
2008,12,13,17,06,-0.60
2008,12,13,17,07,-0.60
2008,12,13,17,08,-0.60
2008,12,13,17,09,-0.60
2008,12,13,17,10,-0.60
2008,12,13,17,11,-0.60
2008,12,13,17,12,-0.60
2008,12,13,17,13,-0.60
2008,12,13,17,14,-0.60
2008,12,13,17,15,-0.60
2008,12,13,17,16,-0.60
2008,12,13,17,17,-0.60
2008,12,13,17,18,-0.70
2008,12,13,17,19,-0.70
2008,12,13,17,20,-0.80
2008,12,13,17,21,-0.80
2008,12,13,17,22,-0.90
2008,12,13,17,23,-0.90
2008,12,13,17,24,-0.90
2008,12,13,17,25,-0.90
2008,12,13,17,26,-0.90
2008,12,13,17,27,-0.90
2008,12,13,17,28,-0.90
2008,12,13,17,29,-1.00
2008,12,13,17,30,-1.10
2008,12,13,17,31,-1.10
2008,12,13,17,32,-1.10
2008,12,13,17,33,-1.10
2008,12,13,17,34,-1.10
2008,12,13,17,35,-1.20
2008,12,13,17,36,-1.20
2008,12,13,17,37,-1.10
2008,12,13,17,38,-1.10
2008,12,13,17,39,-1.20
2008,12,13,17,40,-1.20
2008,12,13,17,41,-1.20
2008,12,13,17,42,-1.20
2008,12,13,17,43,-1.10
2008,12,13,17,44,-1.10
2008,12,13,17,45,-1.10
2008,12,13,17,46,-1.10
2008,12,13,17,47,-1.20
2008,12,13,17,48,-1.20
2008,12,13,17,49,-1.20
2008,12,13,17,50,-1.20
2008,12,13,17,51,-1.20
2008,12,13,17,52,-1.20
2008,12,13,17,53,-1.20
2008,12,13,17,54,-1.30
2008,12,13,17,55,-1.30
2008,12,13,17,56,-1.40
2008,12,13,17,57,-1.40
2008,12,13,17,58,-1.40
2008,12,13,17,59,-1.40
2008,12,13,18,00,-1.40
2008,12,13,18,01,-1.50